Regional Weather Roundup
Issued by NWS

Home | Current Version | Previous Version | Graphics & Text | Print | Product List | Glossary On
Versions: 1 2 3 4 5 6 7 8 9 10 11 12 13 14 15 16 17 18 19 20 21 22 23 24 25 26 27 28 29 30 31 32 33 34 35 36 37 38 39 40 41 42 43 44 45 46 47 48 49 50
000
ASUS43 KLOT 170410
RWRIL

ILLINOIS REGIONAL WEATHER ROUNDUP
NATIONAL WEATHER SERVICE CHICAGO/ROMEOVILLE IL
1100 PM CDT TUE SEP 16 2014

NOTE: "FAIR" INDICATES FEW OR NO CLOUDS BELOW 12,000 FEET WITH NO
SIGNIFICANT WEATHER AND/OR OBSTRUCTIONS TO VISIBILITY.

* THESE STATIONS ARE NOT UNDER NWS QUALITY CONTROL. THEY ALSO MAY NOT
  REPORT WEATHER SUCH AS PRECIPITATION OR FOG.

ILZ001-002-007-009-015-016-024-170500-
NORTHWEST ILLINOIS

CITY           SKY/WX    TMP DP  RH WIND       PRES   REMARKS
MOLINE         CLEAR     48  44  86 CALM      30.09S
STERLING*      CLEAR     46  41  81 CALM      30.10R
SAVANNA*       CLEAR     48  46  92 CALM      30.09S
$$

ILZ003-004-008-010-011-017-018-170500-
NORTH CENTRAL ILLINOIS

CITY           SKY/WX    TMP DP  RH WIND       PRES   REMARKS
ROCKFORD       CLEAR     48  44  86 CALM      30.11S
FREEPORT*      CLEAR     44  41  91 CALM      30.11S
ROCHELLE*      CLEAR     43  41  94 CALM      30.10S
DE KALB*       CLEAR     48  42  80 CALM      30.11R
PERU*          CLEAR     50  45  84 CALM      30.10S
$$

ILZ005-006-012>014-019>023-170500-
NORTHEAST ILLINOIS

CITY           SKY/WX    TMP DP  RH WIND       PRES   REMARKS
CHICAGO-OHARE  CLEAR     55  47  74 SE3       30.09F
CHICAGO-MIDWAY CLEAR     58  50  75 E3        30.09F
AURORA         CLEAR     45  42  89 CALM      30.10S
LANSING*       CLEAR     50  48  93 CALM      30.10S
JOLIET*        CLEAR     46  44  95 CALM      30.11S
WAUKEGAN       CLEAR     45  43  93 CALM      30.09S
DUPAGE AIRPORT CLEAR     48  43  82 CALM      30.09S
KANKAKEE*      CLEAR     47  46  97 CALM      30.10F
WHEELING       CLEAR     52  47  83 CALM      30.11S
MORRIS*        CLEAR     47  47 100 CALM      30.09S
ROMEOVILLE*    CLEAR     49  45  87 CALM      30.09S
NORTHERLY ISL    N/A     56  52  86 CALM        N/A
$$

LMZ740>746-170500-
SOUTHERN LAKE MICHIGAN

STATION/POSITION SKY/WX   TEMP    WIND        PRES    VSBY  WAVE
                          AIR SEA DIR/SP/G                  HT/PER
                          (F)     (DEG/KT/KT) (MB)    (MI)  (FT/S)
SOUTHERN BUOY              60 64  200/  6/  8 1019.2F         1
WAUKEGAN HARBOR            56     290/  3/  3   N/A
HARRISON CRIB              60     100/  7/  8   N/A
BURNHAM HARBOR             55      CALM  /  4   N/A
CALUMET HARBOR             57      CALM  /  1 1017.9S
MICHIGAN CITY              53     100/  5/  7   N/A
MICHIGAN CITY 6N           57 65  110/  8/ 10   N/A           1/ 4
ST. JOSEPH                 59 66  110/  6/  8   N/A           1/ 4
$$

ILZ025>027-034>036-040-047-049-050-058-095>099-170500-
WEST-CENTRAL ILLINOIS

CITY           SKY/WX    TMP DP  RH WIND       PRES   REMARKS
QUINCY         CLEAR     54  50  86 SW6       30.09S
GALESBURG*     CLEAR     45  43  93 CALM      30.09S
MACOMB*        CLEAR     47  46  97 CALM      30.11R
JACKSONVILLE*  CLEAR     53  51  92 SW3       30.11S
PITTSFIELD*    CLEAR     53  50  92 CALM      30.11S
$$

ILZ028>032-037-038-041>044-048-051>054-059>061-170500-
CENTRAL ILLINOIS

CITY           SKY/WX    TMP DP  RH WIND       PRES   REMARKS
PONTIAC        CLEAR     46  46 100 CALM      30.10S
DECATUR        CLEAR     54  49  83 W5        30.11S
PEORIA         CLEAR     52  48  86 CALM      30.10S
LACON*         CLEAR     47  45  93 CALM      30.09S
LINCOLN*       CLEAR     54  47  77 CALM      30.08S
SPRINGFIELD    CLEAR     50  47  89 N3        30.10S
TAYLORVILLE    CLEAR     50  46  87 CALM      30.10S
$$

ILZ033-039-045-046-055>057-062-063-170500-
EAST-CENTRAL ILLINOIS

CITY           SKY/WX    TMP DP  RH WIND       PRES   REMARKS
CHAMPAIGN      CLEAR     49  46  90 NE3       30.11R
DANVILLE*      CLEAR     47  46  97 CALM      30.08S
RANTOUL*       CLEAR     54  47  78 CALM      30.11F
MATTOON        CLEAR     53  50  89 SW3       30.11R
PARIS*         CLEAR     47  46  99 CALM      30.12R
$$

ILZ079-100>102-170500-
SOUTHWEST ILLINOIS

CITY           SKY/WX    TMP DP  RH WIND       PRES   REMARKS
ALTON          CLEAR     49  48  96 CALM      30.11R FOG
BELLEVILLE     CLEAR     53  52  99 CALM      30.10S
CAHOKIA*       CLEAR     51  50  96 CALM      30.10S FOG
SPARTA*        CLEAR     50  49  97 CALM      30.11S
$$

ILZ064>066-069>071-074>076-080>082-084>086-088>090-092>094-170500-
SOUTH-CENTRAL ILLINOIS

CITY           SKY/WX    TMP DP  RH WIND       PRES   REMARKS
CARBONDALE     CLEAR     49  47  93 E3        30.11S FOG
CAIRO*         CLEAR     53  50  87 CALM      30.10S
EFFINGHAM*     CLEAR     49  47  92 CALM      30.12S FOG
MARION         CLEAR     50  50 100 CALM      30.12S FOG
MT. VERNON       N/A     48  45  87 CALM      30.12F VSB 1/2
CENTRALIA*     FOG       50  48  93 CALM      30.11F VSB 1/4
SALEM*         CLEAR     52  51  97 CALM      30.12S FOG
METROPOLIS*    CLEAR     52  52 100 N3        30.10R
$$

ILZ067-068-072-073-078-083-087-091-170500-
SOUTHEAST ILLINOIS

CITY           SKY/WX    TMP DP  RH WIND       PRES   REMARKS
LAWRENCEVILLE  CLEAR     50  47  89 CALM      30.12S
FLORA*         CLEAR     48  47  97 CALM      30.12S FOG
FAIRFIELD*     CLEAR    N/A N/A N/A CALM      30.11F FOG
HARRISBURG*    CLEAR     50  50 100 CALM      30.12S FOG
ROBINSON*      FOG       49  49  99 CALM      30.12S VSB 1
CARMI*         CLEAR     50  50  99 CALM      30.11S FOG
$$

ABBREVIATIONS USED IN REMARKS
   TC - TEMPERATURE IN CELSIUS
  WCI - WIND CHILL INDEX
   HX - HEAT INDEX
  VSB - VISIBILITY
$$



USA.gov is the U.S. government's official web portal to all federal, state and local government web resources and services.